Location: *
(31.2983°S, 151.4094°E)
Time: 12:53:36
(UTC+00:00)

Cosmos 1666 Rocket - Pass Details

Date: 25 August 2019
Orbit: 603 x 633 km, 82.5° (Epoch: 21 September)

Event Time Altitude Azimuth Distance (km) Brightness Sun altitude
Rises 19:22:02 0° 354° (N) 2,872 7.0 -12.8°
Reaches altitude 10° 19:24:13 10° 353° (N) 1,980 6.1 -12.3°
Maximum altitude 19:28:37 86° 263° (W) 635 3.5 -11.4°
Drops below altitude 10° 19:33:08 10° 175° (S) 2,028 6.2 -10.4°
Sets 19:35:24 0° 174° (S) 2,947 7.0 -10.0°
